ASTRA 4A (SIRIUS 4)

Last updated on Jan. 29, 2020, 4:37 a.m. UTC

1 32299U 07057A   20028.85927229  .00000032  00000-0  00000-0 0  9995
2 32299   0.0089  33.4522 0002785 270.5969 137.6537  1.00273091 28301
UTC
Height (km)
Latitude
Longitude
Inclination
Orbital Period
UTC large
Height (km)
Speed (km/s)
/
Latitude / Longitude
Inclination (degrees)
Orbital Period (minutes)
Azimuth
Elevation
Range (km)
Doppler Factor
iOS Compass Heading
iOS Angle

Next 30 passes for location: Hong Kong

Rise time Rise Azimuth (degrees) Set time Set Azimuth (degrees) Duration Max altitude (degrees)

No matching passes for this satellites